Time,TemperatureF,DewpointF,PressureIn,WindDirection,WindDirectionDegrees,WindSpeedMPH,WindSpeedGustMPH,Humidity,HourlyPrecipIn,Conditions,Clouds,dailyrainin,SoftwareType,DateUTC
2013-03-12 00:00:00,45.2,28.1,30.18,SE,138,2.0,4.0,51,0.00,,,0.00,Wunderground v.1.15,2013-03-12 07:00:00,
2013-03-12 00:02:00,45.2,28.6,30.18,SE,138,4.0,4.0,52,0.00,,,0.00,Wunderground v.1.15,2013-03-12 07:02:00,
2013-03-12 00:03:00,45.2,28.6,30.18,SE,138,5.0,5.0,52,0.00,,,0.00,Wunderground v.1.15,2013-03-12 07:03:00,
2013-03-12 00:04:00,45.3,28.2,30.18,SE,138,5.0,5.0,51,0.00,,,0.00,Wunderground v.1.15,2013-03-12 07:04:00,
2013-03-12 00:05:00,45.3,28.2,30.18,SE,138,5.0,5.0,51,0.00,,,0.00,Wunderground v.1.15,2013-03-12 07:05:00,
2013-03-12 00:08:00,45.4,27.8,30.18,SE,138,4.0,5.0,50,0.00,,,0.00,Wunderground v.1.15,2013-03-12 07:08:00,
2013-03-12 00:11:00,45.4,27.8,30.18,SE,138,4.0,5.0,50,0.00,,,0.00,Wunderground v.1.15,2013-03-12 07:11:00,
2013-03-12 00:13:00,45.5,27.9,30.18,SE,138,2.0,4.0,50,0.00,,,0.00,Wunderground v.1.15,2013-03-12 07:13:00,
2013-03-12 00:15:00,45.5,28.4,30.18,SE,138,5.0,5.0,51,0.00,,,0.00,Wunderground v.1.15,2013-03-12 07:15:00,
2013-03-12 00:16:00,45.5,28.4,30.18,SE,138,5.0,5.0,51,0.00,,,0.00,Wunderground v.1.15,2013-03-12 07:16:00,
2013-03-12 00:19:00,45.4,27.8,30.18,SE,138,4.0,5.0,50,0.00,,,0.00,Wunderground v.1.15,2013-03-12 07:19:00,
2013-03-12 00:22:00,45.4,28.3,30.17,SE,138,4.0,5.0,51,0.00,,,0.00,Wunderground v.1.15,2013-03-12 07:22:00,
2013-03-12 00:24:00,45.3,28.2,30.17,SE,138,4.0,5.0,51,0.00,,,0.00,Wunderground v.1.15,2013-03-12 07:24:00,
2013-03-12 00:28:00,45.1,28.5,30.17,SE,138,4.0,5.0,52,0.00,,,0.00,Wunderground v.1.15,2013-03-12 07:28:00,
2013-03-12 00:29:00,45.0,28.4,30.17,SE,138,5.0,5.0,52,0.00,,,0.00,Wunderground v.1.15,2013-03-12 07:29:00,
2013-03-12 00:30:00,44.9,28.3,30.17,SE,138,4.0,5.0,52,0.00,,,0.00,Wunderground v.1.15,2013-03-12 07:30:00,
2013-03-12 00:32:00,44.7,28.6,30.17,SE,138,4.0,5.0,53,0.00,,,0.00,Wunderground v.1.15,2013-03-12 07:32:00,
2013-03-12 00:34:00,44.4,28.3,30.17,SE,138,5.0,5.0,53,0.00,,,0.00,Wunderground v.1.15,2013-03-12 07:34:00,
2013-03-12 00:35:00,44.4,28.3,30.17,SE,138,4.0,5.0,53,0.00,,,0.00,Wunderground v.1.15,2013-03-12 07:35:00,
2013-03-12 00:36:00,44.3,28.2,30.17,SE,138,5.0,5.0,53,0.00,,,0.00,Wunderground v.1.15,2013-03-12 07:36:00,
2013-03-12 00:40:00,44.3,28.7,30.17,SE,138,5.0,5.0,54,0.00,,,0.00,Wunderground v.1.15,2013-03-12 07:40:00,
2013-03-12 00:42:00,44.2,28.6,30.17,SE,138,4.0,5.0,54,0.00,,,0.00,Wunderground v.1.15,2013-03-12 07:42:00,
2013-03-12 00:44:00,44.2,28.6,30.17,SE,138,5.0,5.0,54,0.00,,,0.00,Wunderground v.1.15,2013-03-12 07:44:00,
2013-03-12 00:46:00,44.2,28.1,30.17,SE,138,5.0,5.0,53,0.00,,,0.00,Wunderground v.1.15,2013-03-12 07:46:00,
2013-03-12 00:50:00,44.2,28.6,30.17,SE,138,5.0,5.0,54,0.00,,,0.00,Wunderground v.1.15,2013-03-12 07:50:00,
2013-03-12 00:51:00,44.2,28.6,30.17,SE,138,5.0,5.0,54,0.00,,,0.00,Wunderground v.1.15,2013-03-12 07:51:00,
2013-03-12 00:52:00,44.2,28.6,30.16,SE,138,4.0,5.0,54,0.00,,,0.00,Wunderground v.1.15,2013-03-12 07:52:00,
2013-03-12 00:54:00,44.1,28.5,30.16,SE,138,5.0,5.0,54,0.00,,,0.00,Wunderground v.1.15,2013-03-12 07:54:00,
2013-03-12 00:59:00,44.1,28.5,30.16,SE,138,5.0,5.0,54,0.00,,,0.00,Wunderground v.1.15,2013-03-12 07:59:00,
2013-03-12 01:00:00,44.1,28.5,30.16,SE,138,5.0,5.0,54,0.00,,,0.00,Wunderground v.1.15,2013-03-12 08:00:00,
2013-03-12 01:01:00,44.0,28.4,30.16,SE,138,4.0,5.0,54,0.00,,,0.00,Wunderground v.1.15,2013-03-12 08:01:00,
2013-03-12 01:03:00,44.0,28.4,30.16,SE,138,4.0,5.0,54,0.00,,,0.00,Wunderground v.1.15,2013-03-12 08:03:00,
2013-03-12 01:06:00,44.0,28.4,30.16,SE,138,4.0,5.0,54,0.00,,,0.00,Wunderground v.1.15,2013-03-12 08:06:00,
2013-03-12 01:07:00,44.0,28.4,30.16,SE,138,4.0,5.0,54,0.00,,,0.00,Wunderground v.1.15,2013-03-12 08:07:00,
2013-03-12 01:08:00,44.0,28.4,30.16,SE,138,4.0,5.0,54,0.00,,,0.00,Wunderground v.1.15,2013-03-12 08:08:00,
2013-03-12 01:13:00,43.5,28.8,30.16,SE,138,4.0,5.0,56,0.00,,,0.00,Wunderground v.1.15,2013-03-12 08:13:00,
2013-03-12 01:14:00,43.4,28.7,30.16,SE,138,5.0,5.0,56,0.00,,,0.00,Wunderground v.1.15,2013-03-12 08:14:00,
2013-03-12 01:17:00,43.1,28.9,30.16,SE,138,5.0,5.0,57,0.00,,,0.00,Wunderground v.1.15,2013-03-12 08:17:00,
2013-03-12 01:18:00,43.1,28.9,30.16,SE,138,5.0,5.0,57,0.00,,,0.00,Wunderground v.1.15,2013-03-12 08:18:00,
2013-03-12 01:23:00,43.1,28.9,30.16,SE,138,5.0,5.0,57,0.00,,,0.00,Wunderground v.1.15,2013-03-12 08:23:00,
2013-03-12 01:24:00,43.1,28.9,30.16,SE,138,5.0,5.0,57,0.00,,,0.00,Wunderground v.1.15,2013-03-12 08:24:00,
2013-03-12 01:25:00,43.1,28.9,30.16,SE,138,5.0,5.0,57,0.00,,,0.00,Wunderground v.1.15,2013-03-12 08:25:00,
2013-03-12 01:29:00,43.1,28.9,30.16,ESE,112,5.0,8.0,57,0.00,,,0.00,Wunderground v.1.15,2013-03-12 08:29:00,
2013-03-12 01:30:00,43.2,29.0,30.16,ESE,112,4.0,8.0,57,0.00,,,0.00,Wunderground v.1.15,2013-03-12 08:30:00,
2013-03-12 01:34:00,43.2,29.0,30.16,ESE,112,5.0,5.0,57,0.00,,,0.00,Wunderground v.1.15,2013-03-12 08:34:00,
2013-03-12 01:35:00,43.3,28.6,30.16,ESE,112,5.0,5.0,56,0.00,,,0.00,Wunderground v.1.15,2013-03-12 08:35:00,
2013-03-12 01:38:00,43.3,29.1,30.15,ESE,112,5.0,5.0,57,0.00,,,0.00,Wunderground v.1.15,2013-03-12 08:38:00,
2013-03-12 01:41:00,43.4,29.2,30.15,ESE,112,5.0,6.0,57,0.00,,,0.00,Wunderground v.1.15,2013-03-12 08:41:00,
2013-03-12 01:42:00,43.4,29.2,30.15,ESE,112,5.0,6.0,57,0.00,,,0.00,Wunderground v.1.15,2013-03-12 08:42:00,
2013-03-12 01:43:00,43.4,29.2,30.15,ESE,112,5.0,5.0,57,0.00,,,0.00,Wunderground v.1.15,2013-03-12 08:43:00,
2013-03-12 01:48:00,43.4,29.2,30.15,ESE,112,5.0,6.0,57,0.00,,,0.00,Wunderground v.1.15,2013-03-12 08:48:00,
2013-03-12 01:49:00,43.5,28.8,30.15,ESE,112,5.0,6.0,56,0.00,,,0.00,Wunderground v.1.15,2013-03-12 08:49:00,
2013-03-12 01:53:00,43.6,28.9,30.15,ESE,112,5.0,5.0,56,0.00,,,0.00,Wunderground v.1.15,2013-03-12 08:53:00,
2013-03-12 01:58:00,43.8,29.1,30.15,ESE,112,5.0,6.0,56,0.00,,,0.00,Wunderground v.1.15,2013-03-12 08:58:00,
2013-03-12 02:01:00,43.8,28.7,30.15,ESE,112,5.0,6.0,55,0.00,,,0.00,Wunderground v.1.15,2013-03-12 09:01:00,
2013-03-12 02:02:00,43.8,28.7,30.15,ESE,112,4.0,6.0,55,0.00,,,0.00,Wunderground v.1.15,2013-03-12 09:02:00,
2013-03-12 02:06:00,43.9,28.3,30.15,ESE,112,4.0,5.0,54,0.00,,,0.00,Wunderground v.1.15,2013-03-12 09:06:00,
2013-03-12 02:11:00,43.9,29.2,30.14,ESE,112,0.0,5.0,56,0.00,,,0.00,Wunderground v.1.15,2013-03-12 09:11:00,
2013-03-12 02:16:00,42.8,29.9,30.14,ESE,112,1.0,3.0,60,0.00,,,0.00,Wunderground v.1.15,2013-03-12 09:16:00,
2013-03-12 02:21:00,41.9,30.2,30.14,ESE,112,1.0,3.0,63,0.00,,,0.00,Wunderground v.1.15,2013-03-12 09:21:00,
2013-03-12 02:26:00,41.1,29.8,30.14,ESE,112,1.0,2.0,64,0.00,,,0.00,Wunderground v.1.15,2013-03-12 09:26:00,
2013-03-12 02:31:00,40.5,29.7,30.14,ESE,112,2.0,4.0,65,0.00,,,0.00,Wunderground v.1.15,2013-03-12 09:31:00,
2013-03-12 02:36:00,40.3,29.1,30.14,ESE,112,0.0,4.0,64,0.00,,,0.00,Wunderground v.1.15,2013-03-12 09:36:00,
2013-03-12 02:41:00,40.6,29.4,30.14,ESE,112,0.0,4.0,64,0.00,,,0.00,Wunderground v.1.15,2013-03-12 09:41:00,
2013-03-12 02:46:00,40.6,29.4,30.14,ESE,112,1.0,1.0,64,0.00,,,0.00,Wunderground v.1.15,2013-03-12 09:46:00,
2013-03-12 02:51:00,40.3,29.1,30.14,ESE,112,2.0,4.0,64,0.00,,,0.00,Wunderground v.1.15,2013-03-12 09:51:00,
2013-03-12 02:56:00,40.4,28.8,30.13,ESE,112,2.0,4.0,63,0.00,,,0.00,Wunderground v.1.15,2013-03-12 09:56:00,
2013-03-12 03:01:00,40.7,28.7,30.14,ESE,112,2.0,4.0,62,0.00,,,0.00,Wunderground v.1.15,2013-03-12 10:01:00,
2013-03-12 03:06:00,41.1,29.8,30.13,ESE,112,2.0,4.0,64,0.00,,,0.00,Wunderground v.1.15,2013-03-12 10:06:00,
2013-03-12 03:11:00,41.3,28.4,30.13,ESE,112,5.0,5.0,60,0.00,,,0.00,Wunderground v.1.15,2013-03-12 10:11:00,
2013-03-12 03:16:00,41.4,28.5,30.12,ESE,112,4.0,5.0,60,0.00,,,0.00,Wunderground v.1.15,2013-03-12 10:16:00,
2013-03-12 03:21:00,41.3,28.4,30.13,ESE,112,5.0,5.0,60,0.00,,,0.00,Wunderground v.1.15,2013-03-12 10:21:00,
2013-03-12 03:26:00,41.6,28.3,30.12,ESE,112,4.0,5.0,59,0.00,,,0.00,Wunderground v.1.15,2013-03-12 10:26:00,
2013-03-12 03:31:00,41.6,28.3,30.12,ESE,112,4.0,5.0,59,0.00,,,0.00,Wunderground v.1.15,2013-03-12 10:31:00,
2013-03-12 03:36:00,41.8,28.5,30.12,ESE,112,2.0,4.0,59,0.00,,,0.00,Wunderground v.1.15,2013-03-12 10:36:00,
2013-03-12 03:41:00,41.5,28.6,30.12,ESE,112,5.0,8.0,60,0.00,,,0.00,Wunderground v.1.15,2013-03-12 10:41:00,
2013-03-12 03:46:00,41.3,28.4,30.11,ESE,111,5.0,6.0,60,0.00,,,0.00,Wunderground v.1.15,2013-03-12 10:46:00,
2013-03-12 03:51:00,41.9,28.6,30.11,ESE,111,6.0,6.0,59,0.00,,,0.00,Wunderground v.1.15,2013-03-12 10:51:00,
2013-03-12 03:56:00,42.2,28.9,30.11,ESE,110,6.0,6.0,59,0.00,,,0.00,Wunderground v.1.15,2013-03-12 10:56:00,
2013-03-12 04:01:00,41.8,28.9,30.11,ESE,103,5.0,7.0,60,0.00,,,0.00,Wunderground v.1.15,2013-03-12 11:01:00,
2013-03-12 04:06:00,41.0,29.0,30.11,East,101,7.0,7.0,62,0.00,,,0.00,Wunderground v.1.15,2013-03-12 11:06:00,
2013-03-12 04:11:00,41.0,29.4,30.11,East,101,5.0,7.0,63,0.00,,,0.00,Wunderground v.1.15,2013-03-12 11:11:00,
2013-03-12 04:16:00,41.4,29.7,30.10,East,101,6.0,7.0,63,0.00,,,0.00,Wunderground v.1.15,2013-03-12 11:16:00,
2013-03-12 04:21:00,41.5,29.4,30.10,East,101,6.0,7.0,62,0.00,,,0.00,Wunderground v.1.15,2013-03-12 11:21:00,
2013-03-12 04:26:00,41.0,29.7,30.10,East,96,7.0,7.0,64,0.00,,,0.00,Wunderground v.1.15,2013-03-12 11:26:00,
2013-03-12 04:31:00,41.2,29.9,30.10,East,96,6.0,7.0,64,0.00,,,0.00,Wunderground v.1.15,2013-03-12 11:31:00,
2013-03-12 04:36:00,41.2,29.9,30.10,East,96,5.0,6.0,64,0.00,,,0.00,Wunderground v.1.15,2013-03-12 11:36:00,
2013-03-12 04:41:00,41.2,30.3,30.10,East,96,5.0,6.0,65,0.00,,,0.00,Wunderground v.1.15,2013-03-12 11:41:00,
2013-03-12 04:46:00,41.2,30.3,30.10,East,96,5.0,7.0,65,0.00,,,0.00,Wunderground v.1.15,2013-03-12 11:46:00,
2013-03-12 04:51:00,41.1,30.6,30.10,East,96,4.0,7.0,66,0.00,,,0.00,Wunderground v.1.15,2013-03-12 11:51:00,
2013-03-12 04:56:00,41.0,30.5,30.10,East,96,4.0,5.0,66,0.00,,,0.00,Wunderground v.1.15,2013-03-12 11:56:00,
2013-03-12 05:01:00,41.2,30.7,30.10,East,96,2.0,5.0,66,0.00,,,0.00,Wunderground v.1.15,2013-03-12 12:01:00,
2013-03-12 05:06:00,41.2,30.7,30.10,East,96,2.0,4.0,66,0.00,,,0.00,Wunderground v.1.15,2013-03-12 12:06:00,
2013-03-12 05:11:00,41.1,31.0,30.10,East,96,1.0,4.0,67,0.00,,,0.00,Wunderground v.1.15,2013-03-12 12:11:00,
2013-03-12 05:16:00,40.7,30.6,30.10,East,96,4.0,5.0,67,0.00,,,0.00,Wunderground v.1.15,2013-03-12 12:16:00,
2013-03-12 05:21:00,40.7,31.0,30.10,East,96,2.0,6.0,68,0.00,,,0.00,Wunderground v.1.15,2013-03-12 12:21:00,
2013-03-12 05:26:00,40.7,31.0,30.09,East,96,5.0,8.0,68,0.00,,,0.00,Wunderground v.1.15,2013-03-12 12:26:00,
2013-03-12 05:31:00,40.7,31.0,30.10,East,96,4.0,8.0,68,0.00,,,0.00,Wunderground v.1.15,2013-03-12 12:31:00,
2013-03-12 05:36:00,39.9,30.9,30.10,East,96,5.0,7.0,70,0.00,,,0.00,Wunderground v.1.15,2013-03-12 12:36:00,
2013-03-12 05:37:00,39.8,30.8,30.10,East,96,2.0,7.0,70,0.00,,,0.00,Wunderground v.1.15,2013-03-12 12:37:00,
2013-03-12 05:41:00,39.1,30.8,30.10,East,96,2.0,7.0,72,0.00,,,0.00,Wunderground v.1.15,2013-03-12 12:41:00,
2013-03-12 05:46:00,38.5,30.9,30.09,East,96,2.0,5.0,74,0.00,,,0.00,Wunderground v.1.15,2013-03-12 12:46:00,
2013-03-12 05:51:00,38.6,31.0,30.09,East,96,4.0,5.0,74,0.00,,,0.00,Wunderground v.1.15,2013-03-12 12:51:00,
2013-03-12 05:56:00,39.1,31.5,30.09,East,96,5.0,6.0,74,0.00,,,0.00,Wunderground v.1.15,2013-03-12 12:56:00,
2013-03-12 06:01:00,39.8,31.8,30.09,East,96,4.0,6.0,73,0.00,,,0.00,Wunderground v.1.15,2013-03-12 13:01:00,
2013-03-12 06:06:00,40.3,31.6,30.09,East,86,2.0,7.0,71,0.00,,,0.00,Wunderground v.1.15,2013-03-12 13:06:00,
2013-03-12 06:11:00,40.2,31.5,30.09,East,86,1.0,7.0,71,0.00,,,0.00,Wunderground v.1.15,2013-03-12 13:11:00,
2013-03-12 06:14:00,40.1,31.4,30.09,East,86,1.0,3.0,71,0.00,,,0.00,Wunderground v.1.15,2013-03-12 13:14:00,
2013-03-12 06:19:00,39.9,31.6,30.09,East,86,1.0,3.0,72,0.00,,,0.00,Wunderground v.1.15,2013-03-12 13:19:00,
2013-03-12 06:21:00,39.8,31.5,30.09,East,86,1.0,3.0,72,0.00,,,0.00,Wunderground v.1.15,2013-03-12 13:21:00,
2013-03-12 06:26:00,39.3,31.4,30.09,East,86,0.0,1.0,73,0.00,,,0.00,Wunderground v.1.15,2013-03-12 13:26:00,
2013-03-12 06:31:00,39.2,31.6,30.08,East,86,1.0,4.0,74,0.00,,,0.00,Wunderground v.1.15,2013-03-12 13:31:00,
2013-03-12 06:32:00,39.2,31.6,30.08,East,86,0.0,4.0,74,0.00,,,0.00,Wunderground v.1.15,2013-03-12 13:32:00,
2013-03-12 06:37:00,39.3,31.7,30.09,East,86,0.0,1.0,74,0.00,,,0.00,Wunderground v.1.15,2013-03-12 13:37:00,
2013-03-12 06:41:00,39.5,31.9,30.09,East,86,0.0,2.0,74,0.00,,,0.00,Wunderground v.1.15,2013-03-12 13:41:00,
2013-03-12 06:46:00,39.1,31.5,30.09,East,86,2.0,2.0,74,0.00,,,0.00,Wunderground v.1.15,2013-03-12 13:46:00,
2013-03-12 06:51:00,38.7,31.1,30.08,East,86,1.0,4.0,74,0.00,,,0.00,Wunderground v.1.15,2013-03-12 13:51:00,
2013-03-12 06:56:00,38.7,31.8,30.08,East,86,0.0,2.0,76,0.00,,,0.00,Wunderground v.1.15,2013-03-12 13:56:00,
2013-03-12 07:01:00,38.9,31.6,30.08,East,86,0.0,2.0,75,0.00,,,0.00,Wunderground v.1.15,2013-03-12 14:01:00,
2013-03-12 07:06:00,39.4,32.1,30.08,East,86,2.0,3.0,75,0.00,,,0.00,Wunderground v.1.15,2013-03-12 14:06:00,
2013-03-12 07:11:00,39.2,31.9,30.07,East,86,2.0,3.0,75,0.00,,,0.00,Wunderground v.1.15,2013-03-12 14:11:00,
2013-03-12 07:16:00,39.4,32.5,30.07,East,86,2.0,3.0,76,0.00,,,0.00,Wunderground v.1.15,2013-03-12 14:16:00,
2013-03-12 07:21:00,39.6,32.3,30.08,East,86,2.0,3.0,75,0.00,,,0.00,Wunderground v.1.15,2013-03-12 14:21:00,
2013-03-12 07:26:00,40.0,32.7,30.08,East,86,0.0,2.0,75,0.00,,,0.00,Wunderground v.1.15,2013-03-12 14:26:00,
2013-03-12 07:31:00,40.2,32.6,30.07,East,86,0.0,2.0,74,0.00,,,0.00,Wunderground v.1.15,2013-03-12 14:31:00,
2013-03-12 07:36:00,40.0,32.4,30.07,East,86,3.0,3.0,74,0.00,,,0.00,Wunderground v.1.15,2013-03-12 14:36:00,
2013-03-12 07:41:00,39.9,32.6,30.07,East,86,2.0,3.0,75,0.00,,,0.00,Wunderground v.1.15,2013-03-12 14:41:00,
2013-03-12 07:46:00,39.8,32.8,30.07,East,86,3.0,3.0,76,0.00,,,0.00,Wunderground v.1.15,2013-03-12 14:46:00,
2013-03-12 07:51:00,39.9,32.9,30.07,East,86,2.0,6.0,76,0.00,,,0.00,Wunderground v.1.15,2013-03-12 14:51:00,
2013-03-12 07:56:00,39.8,33.2,30.06,East,86,4.0,4.0,77,0.00,,,0.00,Wunderground v.1.15,2013-03-12 14:56:00,
2013-03-12 08:01:00,39.8,33.5,30.06,East,86,2.0,4.0,78,0.00,,,0.00,Wunderground v.1.15,2013-03-12 15:01:00,
2013-03-12 08:05:00,39.8,33.5,30.06,East,91,2.0,4.0,78,0.00,,,0.00,Wunderground v.1.15,2013-03-12 15:05:00,
2013-03-12 08:06:00,39.8,33.5,30.06,East,91,5.0,5.0,78,0.00,,,0.00,Wunderground v.1.15,2013-03-12 15:06:00,
2013-03-12 08:11:00,39.1,32.8,30.07,East,91,2.0,5.0,78,0.00,,,0.00,Wunderground v.1.15,2013-03-12 15:11:00,
2013-03-12 08:16:00,38.7,32.7,30.07,East,91,2.0,3.0,79,0.00,,,0.00,Wunderground v.1.15,2013-03-12 15:16:00,
2013-03-12 08:21:00,38.6,33.0,30.07,East,91,4.0,5.0,80,0.00,,,0.00,Wunderground v.1.15,2013-03-12 15:21:00,
2013-03-12 08:26:00,38.7,33.1,30.07,East,91,2.0,5.0,80,0.00,,,0.00,Wunderground v.1.15,2013-03-12 15:26:00,
2013-03-12 08:31:00,38.8,33.5,30.07,East,91,2.0,5.0,81,0.00,,,0.00,Wunderground v.1.15,2013-03-12 15:31:00,
2013-03-12 08:36:00,39.1,33.5,30.07,East,91,2.0,2.0,80,0.00,,,0.00,Wunderground v.1.15,2013-03-12 15:36:00,
2013-03-12 08:41:00,39.3,33.6,30.07,East,92,0.0,4.0,80,0.00,,,0.00,Wunderground v.1.15,2013-03-12 15:41:00,
2013-03-12 08:46:00,39.6,33.9,30.06,East,92,4.0,5.0,80,0.00,,,0.00,Wunderground v.1.15,2013-03-12 15:46:00,
2013-03-12 08:49:00,39.6,33.6,30.06,East,94,2.0,5.0,79,0.00,,,0.00,Wunderground v.1.15,2013-03-12 15:49:00,
2013-03-12 08:51:00,39.5,33.5,30.06,East,94,2.0,5.0,79,0.00,,,0.00,Wunderground v.1.15,2013-03-12 15:51:00,
2013-03-12 08:56:00,39.5,33.8,30.06,East,94,4.0,5.0,80,0.00,,,0.00,Wunderground v.1.15,2013-03-12 15:56:00,
2013-03-12 09:01:00,39.5,33.8,30.06,East,94,4.0,7.0,80,0.00,,,0.00,Wunderground v.1.15,2013-03-12 16:01:00,
2013-03-12 09:06:00,40.0,34.0,30.07,East,94,1.0,4.0,79,0.00,,,0.00,Wunderground v.1.15,2013-03-12 16:06:00,
2013-03-12 09:11:00,40.3,34.3,30.07,ESE,105,0.0,4.0,79,0.00,,,0.00,Wunderground v.1.15,2013-03-12 16:11:00,
2013-03-12 09:16:00,40.7,34.4,30.07,ESE,105,2.0,2.0,78,0.00,,,0.00,Wunderground v.1.15,2013-03-12 16:16:00,
2013-03-12 09:21:00,41.0,34.7,30.07,ESE,113,4.0,4.0,78,0.00,,,0.00,Wunderground v.1.15,2013-03-12 16:21:00,
2013-03-12 09:26:00,41.2,34.9,30.07,ESE,113,5.0,6.0,78,0.00,,,0.00,Wunderground v.1.15,2013-03-12 16:26:00,
2013-03-12 09:31:00,41.3,35.3,30.07,ESE,113,5.0,7.0,79,0.00,,,0.00,Wunderground v.1.15,2013-03-12 16:31:00,
2013-03-12 09:36:00,41.3,35.3,30.07,ESE,113,4.0,6.0,79,0.00,,,0.00,Wunderground v.1.15,2013-03-12 16:36:00,
2013-03-12 09:41:00,41.4,35.4,30.07,ESE,113,6.0,7.0,79,0.00,,,0.00,Wunderground v.1.15,2013-03-12 16:41:00,
2013-03-12 09:46:00,41.6,35.2,30.07,ESE,113,6.0,7.0,78,0.00,,,0.00,Wunderground v.1.15,2013-03-12 16:46:00,
2013-03-12 09:51:00,41.8,35.1,30.07,ESE,112,7.0,7.0,77,0.00,,,0.00,Wunderground v.1.15,2013-03-12 16:51:00,
2013-03-12 09:56:00,42.1,35.4,30.07,ESE,109,5.0,8.0,77,0.00,,,0.00,Wunderground v.1.15,2013-03-12 16:56:00,
2013-03-12 10:01:00,42.6,35.9,30.07,ESE,110,4.0,8.0,77,0.00,,,0.00,Wunderground v.1.15,2013-03-12 17:01:00,
2013-03-12 10:02:00,42.7,36.0,30.07,ESE,110,4.0,8.0,77,0.00,,,0.00,Wunderground v.1.15,2013-03-12 17:02:00,
2013-03-12 10:07:00,43.2,36.1,30.07,ESE,112,7.0,8.0,76,0.00,,,0.00,Wunderground v.1.15,2013-03-12 17:07:00,
2013-03-12 10:11:00,43.7,36.6,30.06,ESE,109,5.0,8.0,76,0.00,,,0.00,Wunderground v.1.15,2013-03-12 17:11:00,
2013-03-12 10:16:00,43.8,36.4,30.06,ESE,103,6.0,7.0,75,0.00,,,0.00,Wunderground v.1.15,2013-03-12 17:16:00,
2013-03-12 10:21:00,44.0,36.6,30.06,ESE,103,4.0,7.0,75,0.00,,,0.00,Wunderground v.1.15,2013-03-12 17:21:00,
2013-03-12 10:26:00,44.2,36.8,30.06,ESE,103,2.0,5.0,75,0.00,,,0.00,Wunderground v.1.15,2013-03-12 17:26:00,
2013-03-12 10:31:00,44.6,37.2,30.06,ESE,103,2.0,5.0,75,0.00,,,0.00,Wunderground v.1.15,2013-03-12 17:31:00,
2013-03-12 10:36:00,44.9,37.5,30.06,ESE,103,2.0,5.0,75,0.00,,,0.00,Wunderground v.1.15,2013-03-12 17:36:00,
2013-03-12 10:41:00,45.2,37.4,30.06,ESE,103,4.0,6.0,74,0.00,,,0.00,Wunderground v.1.15,2013-03-12 17:41:00,
2013-03-12 10:44:00,45.3,37.5,30.06,ESE,103,1.0,2.0,74,0.00,,,0.00,Wunderground v.1.15,2013-03-12 17:44:00,
2013-03-12 10:46:00,45.4,37.6,30.06,ESE,104,1.0,2.0,74,0.00,,,0.00,Wunderground v.1.15,2013-03-12 17:46:00,
2013-03-12 10:51:00,45.8,38.0,30.06,ESE,104,4.0,5.0,74,0.00,,,0.00,Wunderground v.1.15,2013-03-12 17:51:00,
2013-03-12 10:56:00,46.1,38.3,30.06,ESE,104,0.0,2.0,74,0.00,,,0.00,Wunderground v.1.15,2013-03-12 17:56:00,
2013-03-12 11:01:00,46.5,38.3,30.06,ESE,104,2.0,4.0,73,0.00,,,0.00,Wunderground v.1.15,2013-03-12 18:01:00,
2013-03-12 11:06:00,46.7,38.5,30.06,ESE,106,0.0,4.0,73,0.00,,,0.00,Wunderground v.1.15,2013-03-12 18:06:00,
2013-03-12 11:07:00,46.7,38.5,30.06,ESE,106,0.0,4.0,73,0.00,,,0.00,Wunderground v.1.15,2013-03-12 18:07:00,
2013-03-12 11:12:00,47.0,39.1,30.05,ESE,106,1.0,4.0,74,0.00,,,0.00,Wunderground v.1.15,2013-03-12 18:12:00,
2013-03-12 11:16:00,47.4,39.2,30.05,ESE,106,1.0,2.0,73,0.00,,,0.00,Wunderground v.1.15,2013-03-12 18:16:00,
2013-03-12 11:21:00,47.7,39.5,30.05,ESE,106,2.0,6.0,73,0.00,,,0.00,Wunderground v.1.15,2013-03-12 18:21:00,
2013-03-12 11:26:00,47.8,39.6,30.05,ESE,106,0.0,2.0,73,0.00,,,0.00,Wunderground v.1.15,2013-03-12 18:26:00,
2013-03-12 11:31:00,48.0,39.8,30.05,ESE,106,1.0,4.0,73,0.00,,,0.00,Wunderground v.1.15,2013-03-12 18:31:00,
2013-03-12 11:36:00,48.1,39.9,30.05,ESE,106,2.0,7.0,73,0.00,,,0.00,Wunderground v.1.15,2013-03-12 18:36:00,
2013-03-12 11:41:00,48.3,40.4,30.05,ESE,106,4.0,7.0,74,0.00,,,0.00,Wunderground v.1.15,2013-03-12 18:41:00,
2013-03-12 11:46:00,48.6,40.7,30.05,ESE,107,4.0,6.0,74,0.00,,,0.00,Wunderground v.1.15,2013-03-12 18:46:00,
2013-03-12 11:51:00,48.9,40.6,30.05,ESE,108,1.0,7.0,73,0.00,,,0.00,Wunderground v.1.15,2013-03-12 18:51:00,
2013-03-12 11:56:00,49.5,41.6,30.05,SSW,192,9.0,12.0,74,0.00,,,0.00,Wunderground v.1.15,2013-03-12 18:56:00,
2013-03-12 12:01:00,50.2,41.5,30.05,SSW,206,9.0,12.0,72,0.00,,,0.00,Wunderground v.1.15,2013-03-12 19:01:00,
2013-03-12 12:06:00,50.5,41.4,30.05,SSW,196,7.0,9.0,71,0.00,,,0.00,Wunderground v.1.15,2013-03-12 19:06:00,
2013-03-12 12:11:00,50.5,41.8,30.05,SSW,196,4.0,9.0,72,0.00,,,0.00,Wunderground v.1.15,2013-03-12 19:11:00,
2013-03-12 12:16:00,50.8,42.1,30.05,SSW,198,6.0,9.0,72,0.00,,,0.00,Wunderground v.1.15,2013-03-12 19:16:00,
2013-03-12 12:21:00,50.9,41.8,30.05,SW,216,5.0,9.0,71,0.00,,,0.00,Wunderground v.1.15,2013-03-12 19:21:00,
2013-03-12 12:26:00,51.1,42.0,30.05,SW,217,5.0,9.0,71,0.00,,,0.00,Wunderground v.1.15,2013-03-12 19:26:00,
2013-03-12 12:31:00,51.3,41.8,30.05,SW,225,2.0,9.0,70,0.00,,,0.00,Wunderground v.1.15,2013-03-12 19:31:00,
2013-03-12 12:36:00,51.4,41.9,30.05,SSW,207,3.0,3.0,70,0.00,,,0.00,Wunderground v.1.15,2013-03-12 19:36:00,
2013-03-12 12:41:00,51.5,42.0,30.05,SSW,209,3.0,4.0,70,0.00,,,0.00,Wunderground v.1.15,2013-03-12 19:41:00,
2013-03-12 12:46:00,51.6,42.1,30.05,South,190,1.0,6.0,70,0.00,,,0.00,Wunderground v.1.15,2013-03-12 19:46:00,
2013-03-12 12:51:00,51.9,42.0,30.05,South,191,0.0,6.0,69,0.00,,,0.00,Wunderground v.1.15,2013-03-12 19:51:00,
2013-03-12 12:56:00,52.3,42.4,30.05,SW,225,4.0,5.0,69,0.00,,,0.00,Wunderground v.1.15,2013-03-12 19:56:00,
2013-03-12 13:01:00,52.4,42.5,30.04,SW,226,1.0,5.0,69,0.00,,,0.00,Wunderground v.1.15,2013-03-12 20:01:00,
2013-03-12 13:06:00,52.8,42.5,30.04,SW,225,6.0,6.0,68,0.00,,,0.00,Wunderground v.1.15,2013-03-12 20:06:00,
2013-03-12 13:10:00,53.0,42.7,30.04,SW,223,1.0,6.0,68,0.00,,,0.00,Wunderground v.1.15,2013-03-12 20:10:00,
2013-03-12 13:15:00,53.2,42.5,30.04,SW,219,0.0,2.0,67,0.00,,,0.00,Wunderground v.1.15,2013-03-12 20:15:00,
2013-03-12 13:16:00,53.3,43.0,30.04,SSW,209,0.0,2.0,68,0.00,,,0.00,Wunderground v.1.15,2013-03-12 20:16:00,
2013-03-12 13:21:00,53.6,42.9,30.04,SW,234,6.0,6.0,67,0.00,,,0.00,Wunderground v.1.15,2013-03-12 20:21:00,
2013-03-12 13:26:00,53.9,43.2,30.03,SSW,209,7.0,8.0,67,0.00,,,0.00,Wunderground v.1.15,2013-03-12 20:26:00,
2013-03-12 13:31:00,54.1,43.0,30.03,SW,219,4.0,13.0,66,0.00,,,0.00,Wunderground v.1.15,2013-03-12 20:31:00,
2013-03-12 13:36:00,54.5,43.8,30.03,SSW,205,5.0,12.0,67,0.00,,,0.00,Wunderground v.1.15,2013-03-12 20:36:00,
2013-03-12 13:41:00,55.0,43.8,30.03,SSW,211,8.0,12.0,66,0.00,,,0.00,Wunderground v.1.15,2013-03-12 20:41:00,
2013-03-12 13:46:00,55.1,43.5,30.03,SW,219,8.0,14.0,65,0.00,,,0.00,Wunderground v.1.15,2013-03-12 20:46:00,
2013-03-12 13:51:00,55.2,44.0,30.02,SSW,205,7.0,14.0,66,0.00,,,0.00,Wunderground v.1.15,2013-03-12 20:51:00,
2013-03-12 13:56:00,55.5,43.9,30.02,SW,222,12.0,17.0,65,0.00,,,0.00,Wunderground v.1.15,2013-03-12 20:56:00,
2013-03-12 14:01:00,56.2,44.2,30.02,SW,232,12.0,19.0,64,0.00,,,0.00,Wunderground v.1.15,2013-03-12 21:01:00,
2013-03-12 14:06:00,56.5,43.6,30.02,WSW,240,18.0,23.0,62,0.00,,,0.00,Wunderground v.1.15,2013-03-12 21:06:00,
2013-03-12 14:11:00,56.7,43.4,30.01,SW,227,24.0,27.0,61,0.00,,,0.00,Wunderground v.1.15,2013-03-12 21:11:00,
2013-03-12 14:16:00,57.2,43.4,30.01,WSW,239,18.0,25.0,60,0.00,,,0.00,Wunderground v.1.15,2013-03-12 21:16:00,
2013-03-12 14:21:00,57.0,43.7,30.01,WSW,247,24.0,26.0,61,0.00,,,0.00,Wunderground v.1.15,2013-03-12 21:21:00,
2013-03-12 14:26:00,56.8,43.5,30.01,SW,228,16.0,24.0,61,0.00,,,0.00,Wunderground v.1.15,2013-03-12 21:26:00,
2013-03-12 14:31:00,57.4,43.2,30.01,WSW,247,19.0,25.0,59,0.00,,,0.00,Wunderground v.1.15,2013-03-12 21:31:00,
2013-03-12 14:36:00,57.5,43.7,30.01,SW,232,22.0,27.0,60,0.00,,,0.00,Wunderground v.1.15,2013-03-12 21:36:00,
2013-03-12 14:41:00,57.5,43.3,30.01,SW,232,17.0,27.0,59,0.00,,,0.00,Wunderground v.1.15,2013-03-12 21:41:00,
2013-03-12 14:46:00,57.6,43.8,30.01,SW,225,17.0,26.0,60,0.00,,,0.00,Wunderground v.1.15,2013-03-12 21:46:00,
2013-03-12 14:51:00,57.5,43.7,30.01,SW,227,24.0,26.0,60,0.00,,,0.00,Wunderground v.1.15,2013-03-12 21:51:00,
2013-03-12 14:52:00,57.5,44.1,30.01,SW,219,18.0,26.0,61,0.00,,,0.00,Wunderground v.1.15,2013-03-12 21:52:00,
2013-03-12 14:57:00,58.0,44.2,30.01,WSW,237,17.0,25.0,60,0.00,,,0.00,Wunderground v.1.15,2013-03-12 21:57:00,
2013-03-12 15:01:00,57.8,44.0,30.01,SSW,211,17.0,25.0,60,0.00,,,0.00,Wunderground v.1.15,2013-03-12 22:01:00,
2013-03-12 15:06:00,57.7,43.9,30.01,SW,220,22.0,24.0,60,0.00,,,0.00,Wunderground v.1.15,2013-03-12 22:06:00,
2013-03-12 15:11:00,57.3,43.1,30.01,SW,225,23.0,25.0,59,0.00,,,0.00,Wunderground v.1.15,2013-03-12 22:11:00,
2013-03-12 15:16:00,57.1,43.8,30.01,SW,223,14.0,23.0,61,0.00,,,0.00,Wunderground v.1.15,2013-03-12 22:16:00,
2013-03-12 15:21:00,57.0,43.7,30.01,South,176,14.0,23.0,61,0.00,,,0.00,Wunderground v.1.15,2013-03-12 22:21:00,
2013-03-12 15:26:00,57.0,43.7,30.01,SW,220,19.0,24.0,61,0.00,,,0.00,Wunderground v.1.15,2013-03-12 22:26:00,
2013-03-12 15:31:00,57.1,43.3,30.01,SW,235,18.0,25.0,60,0.00,,,0.00,Wunderground v.1.15,2013-03-12 22:31:00,
2013-03-12 15:36:00,57.1,43.8,30.01,South,180,11.0,23.0,61,0.00,,,0.00,Wunderground v.1.15,2013-03-12 22:36:00,
2013-03-12 15:41:00,57.3,43.5,30.01,SSW,213,19.0,23.0,60,0.00,,,0.00,Wunderground v.1.15,2013-03-12 22:41:00,
2013-03-12 15:46:00,57.5,43.7,30.01,South,189,14.0,24.0,60,0.00,,,0.00,Wunderground v.1.15,2013-03-12 22:46:00,
2013-03-12 15:51:00,58.0,43.7,30.01,SW,217,5.0,25.0,59,0.00,,,0.00,Wunderground v.1.15,2013-03-12 22:51:00,
2013-03-12 15:56:00,58.7,43.5,30.01,SSW,205,22.0,24.0,57,0.00,,,0.00,Wunderground v.1.15,2013-03-12 22:56:00,
2013-03-12 16:01:00,59.1,43.4,30.01,SSW,200,17.0,26.0,56,0.00,,,0.00,Wunderground v.1.15,2013-03-12 23:01:00,
2013-03-12 16:06:00,59.4,43.2,30.01,SW,228,26.0,26.0,55,0.00,,,0.00,Wunderground v.1.15,2013-03-12 23:06:00,
2013-03-12 16:11:00,59.4,42.7,30.01,SSW,211,8.0,28.0,54,0.00,,,0.00,Wunderground v.1.15,2013-03-12 23:11:00,
2013-03-12 16:16:00,59.6,43.4,30.01,SSW,192,14.0,27.0,55,0.00,,,0.00,Wunderground v.1.15,2013-03-12 23:16:00,
2013-03-12 16:21:00,59.4,42.7,30.01,SW,219,15.0,27.0,54,0.00,,,0.00,Wunderground v.1.15,2013-03-12 23:21:00,
2013-03-12 16:26:00,58.9,42.8,30.01,SW,215,16.0,26.0,55,0.00,,,0.00,Wunderground v.1.15,2013-03-12 23:26:00,
2013-03-12 16:31:00,58.5,42.4,30.01,SSW,204,14.0,26.0,55,0.00,,,0.00,Wunderground v.1.15,2013-03-12 23:31:00,
2013-03-12 16:36:00,58.3,42.2,30.01,South,182,13.0,25.0,55,0.00,,,0.00,Wunderground v.1.15,2013-03-12 23:36:00,
2013-03-12 16:41:00,58.4,42.8,30.01,SSW,213,15.0,25.0,56,0.00,,,0.00,Wunderground v.1.15,2013-03-12 23:41:00,
2013-03-12 16:46:00,58.5,42.4,30.00,SW,225,16.0,20.0,55,0.00,,,0.00,Wunderground v.1.15,2013-03-12 23:46:00,
2013-03-12 16:51:00,58.7,42.1,30.00,SSW,203,14.0,22.0,54,0.00,,,0.00,Wunderground v.1.15,2013-03-12 23:51:00,
2013-03-12 16:56:00,58.6,42.0,30.00,SW,222,14.0,23.0,54,0.00,,,0.00,Wunderground v.1.15,2013-03-12 23:56:00,
2013-03-12 17:01:00,58.5,42.4,30.00,SW,224,8.0,23.0,55,0.00,,,0.00,Wunderground v.1.15,2013-03-13 00:01:00,
2013-03-12 17:02:00,58.4,42.3,30.00,SW,236,7.0,23.0,55,0.00,,,0.00,Wunderground v.1.15,2013-03-13 00:02:00,
2013-03-12 17:07:00,58.2,42.6,30.00,SW,223,11.0,19.0,56,0.00,,,0.00,Wunderground v.1.15,2013-03-13 00:07:00,
2013-03-12 17:12:00,57.8,42.2,30.00,SW,223,11.0,19.0,56,0.00,,,0.00,Wunderground v.1.15,2013-03-13 00:12:00,
2013-03-12 17:17:00,57.6,42.0,30.00,SW,234,9.0,19.0,56,0.00,,,0.00,Wunderground v.1.15,2013-03-13 00:17:00,
2013-03-12 17:21:00,57.7,42.1,30.00,SW,215,8.0,19.0,56,0.00,,,0.00,Wunderground v.1.15,2013-03-13 00:21:00,
2013-03-12 17:26:00,57.8,42.2,30.00,SW,221,8.0,19.0,56,0.00,,,0.00,Wunderground v.1.15,2013-03-13 00:26:00,
2013-03-12 17:31:00,58.0,42.4,30.00,SW,220,13.0,21.0,56,0.00,,,0.00,Wunderground v.1.15,2013-03-13 00:31:00,
2013-03-12 17:36:00,58.0,42.4,30.00,WSW,244,10.0,22.0,56,0.00,,,0.00,Wunderground v.1.15,2013-03-13 00:36:00,
2013-03-12 17:41:00,57.8,42.7,30.00,South,186,18.0,24.0,57,0.00,,,0.00,Wunderground v.1.15,2013-03-13 00:41:00,
2013-03-12 17:46:00,57.7,42.1,30.00,WSW,238,14.0,21.0,56,0.00,,,0.00,Wunderground v.1.15,2013-03-13 00:46:00,
2013-03-12 17:51:00,57.6,42.5,30.00,WSW,244,16.0,21.0,57,0.00,,,0.00,Wunderground v.1.15,2013-03-13 00:51:00,
2013-03-12 17:56:00,57.6,42.0,30.00,SW,230,17.0,22.0,56,0.00,,,0.00,Wunderground v.1.15,2013-03-13 00:56:00,
2013-03-12 18:01:00,57.4,42.3,30.00,WSW,251,13.0,22.0,57,0.00,,,0.00,Wunderground v.1.15,2013-03-13 01:01:00,
2013-03-12 18:06:00,57.3,42.2,30.00,SW,232,13.0,18.0,57,0.00,,,0.00,Wunderground v.1.15,2013-03-13 01:06:00,
2013-03-12 18:11:00,57.2,42.1,30.00,SW,214,16.0,20.0,57,0.00,,,0.00,Wunderground v.1.15,2013-03-13 01:11:00,
2013-03-12 18:16:00,57.1,42.0,30.00,SW,227,9.0,16.0,57,0.00,,,0.00,Wunderground v.1.15,2013-03-13 01:16:00,
2013-03-12 18:21:00,56.5,42.3,30.00,SW,227,10.0,16.0,59,0.00,,,0.00,Wunderground v.1.15,2013-03-13 01:21:00,
2013-03-12 18:26:00,56.4,42.2,30.01,SW,236,16.0,17.0,59,0.00,,,0.00,Wunderground v.1.15,2013-03-13 01:26:00,
2013-03-12 18:31:00,57.6,41.5,30.00,WSW,247,14.0,23.0,55,0.00,,,0.00,Wunderground v.1.15,2013-03-13 01:31:00,
2013-03-12 18:36:00,58.1,41.5,30.01,SW,229,13.0,19.0,54,0.00,,,0.00,Wunderground v.1.15,2013-03-13 01:36:00,
2013-03-12 18:41:00,58.0,41.4,30.01,WSW,240,12.0,19.0,54,0.00,,,0.00,Wunderground v.1.15,2013-03-13 01:41:00,
2013-03-12 18:46:00,57.7,41.2,30.01,SW,234,11.0,19.0,54,0.00,,,0.00,Wunderground v.1.15,2013-03-13 01:46:00,
2013-03-12 18:51:00,57.5,41.0,30.01,SW,231,12.0,19.0,54,0.00,,,0.00,Wunderground v.1.15,2013-03-13 01:51:00,
2013-03-12 18:56:00,57.5,41.0,30.01,SW,233,15.0,25.0,54,0.00,,,0.00,Wunderground v.1.15,2013-03-13 01:56:00,
2013-03-12 19:01:00,57.5,41.0,30.01,WSW,258,16.0,25.0,54,0.00,,,0.00,Wunderground v.1.15,2013-03-13 02:01:00,
2013-03-12 19:06:00,56.5,41.4,30.01,WSW,254,9.0,16.0,57,0.00,,,0.00,Wunderground v.1.15,2013-03-13 02:06:00,
2013-03-12 19:11:00,56.0,41.4,30.01,WSW,238,8.0,16.0,58,0.00,,,0.00,Wunderground v.1.15,2013-03-13 02:11:00,
2013-03-12 19:16:00,55.6,41.5,30.01,WSW,254,12.0,14.0,59,0.00,,,0.00,Wunderground v.1.15,2013-03-13 02:16:00,
2013-03-12 19:21:00,55.6,41.5,30.01,WSW,246,11.0,18.0,59,0.00,,,0.00,Wunderground v.1.15,2013-03-13 02:21:00,
2013-03-12 19:26:00,55.4,41.3,30.01,SW,234,12.0,15.0,59,0.00,,,0.00,Wunderground v.1.15,2013-03-13 02:26:00,
2013-03-12 19:31:00,55.0,41.4,30.01,WSW,257,8.0,15.0,60,0.00,,,0.00,Wunderground v.1.15,2013-03-13 02:31:00,
2013-03-12 19:32:00,54.9,41.3,30.01,WSW,238,10.0,15.0,60,0.00,,,0.00,Wunderground v.1.15,2013-03-13 02:32:00,
2013-03-12 19:37:00,54.9,41.3,30.01,WSW,244,15.0,18.0,60,0.00,,,0.00,Wunderground v.1.15,2013-03-13 02:37:00,
2013-03-12 19:41:00,55.2,41.5,30.02,WSW,244,9.0,18.0,60,0.00,,,0.00,Wunderground v.1.15,2013-03-13 02:41:00,
2013-03-12 19:46:00,55.0,41.4,30.02,WSW,238,6.0,10.0,60,0.00,,,0.00,Wunderground v.1.15,2013-03-13 02:46:00,
2013-03-12 19:51:00,54.9,41.7,30.02,WSW,240,8.0,12.0,61,0.00,,,0.00,Wunderground v.1.15,2013-03-13 02:51:00,
2013-03-12 19:56:00,54.9,41.7,30.02,SW,227,10.0,14.0,61,0.00,,,0.00,Wunderground v.1.15,2013-03-13 02:56:00,
2013-03-12 20:01:00,55.3,41.6,30.02,WSW,247,10.0,20.0,60,0.00,,,0.00,Wunderground v.1.15,2013-03-13 03:01:00,
2013-03-12 20:06:00,55.7,41.6,30.03,WSW,240,13.0,18.0,59,0.00,,,0.00,Wunderground v.1.15,2013-03-13 03:06:00,
2013-03-12 20:11:00,55.5,41.8,30.02,SW,234,10.0,18.0,60,0.00,,,0.00,Wunderground v.1.15,2013-03-13 03:11:00,
2013-03-12 20:16:00,54.8,41.6,30.03,WSW,239,6.0,12.0,61,0.00,,,0.00,Wunderground v.1.15,2013-03-13 03:16:00,
2013-03-12 20:21:00,54.9,41.7,30.03,WSW,241,12.0,15.0,61,0.00,,,0.00,Wunderground v.1.15,2013-03-13 03:21:00,
2013-03-12 20:26:00,55.2,41.5,30.03,WSW,241,8.0,16.0,60,0.00,,,0.00,Wunderground v.1.15,2013-03-13 03:26:00,
2013-03-12 20:31:00,55.2,41.5,30.03,WSW,245,13.0,19.0,60,0.00,,,0.00,Wunderground v.1.15,2013-03-13 03:31:00,
2013-03-12 20:36:00,55.1,41.5,30.03,SW,236,5.0,16.0,60,0.00,,,0.00,Wunderground v.1.15,2013-03-13 03:36:00,
2013-03-12 20:41:00,54.2,41.9,30.03,WSW,244,6.0,16.0,63,0.00,,,0.00,Wunderground v.1.15,2013-03-13 03:41:00,
2013-03-12 20:46:00,53.9,41.6,30.03,West,259,9.0,10.0,63,0.00,,,0.00,Wunderground v.1.15,2013-03-13 03:46:00,
2013-03-12 20:51:00,54.2,41.9,30.03,WSW,239,9.0,11.0,63,0.00,,,0.00,Wunderground v.1.15,2013-03-13 03:51:00,
2013-03-12 20:56:00,54.2,41.9,30.03,SW,226,7.0,12.0,63,0.00,,,0.00,Wunderground v.1.15,2013-03-13 03:56:00,
2013-03-12 21:00:00,53.3,41.4,30.03,WSW,240,8.0,12.0,64,0.00,,,0.00,Wunderground v.1.15,2013-03-13 04:00:00,
2013-03-12 21:01:00,53.2,41.7,30.03,SW,234,6.0,12.0,65,0.00,,,0.00,Wunderground v.1.15,2013-03-13 04:01:00,
2013-03-12 21:06:00,52.8,41.7,30.03,WSW,250,9.0,12.0,66,0.00,,,0.00,Wunderground v.1.15,2013-03-13 04:06:00,
2013-03-12 21:11:00,53.3,41.8,30.03,SW,217,6.0,13.0,65,0.00,,,0.00,Wunderground v.1.15,2013-03-13 04:11:00,
2013-03-12 21:16:00,52.8,41.4,30.03,SW,221,6.0,7.0,65,0.00,,,0.00,Wunderground v.1.15,2013-03-13 04:16:00,
2013-03-12 21:21:00,52.9,41.8,30.03,WSW,239,8.0,10.0,66,0.00,,,0.00,Wunderground v.1.15,2013-03-13 04:21:00,
2013-03-12 21:26:00,53.3,41.8,30.04,WSW,238,6.0,9.0,65,0.00,,,0.00,Wunderground v.1.15,2013-03-13 04:26:00,
2013-03-12 21:31:00,53.3,41.8,30.04,WSW,247,6.0,9.0,65,0.00,,,0.00,Wunderground v.1.15,2013-03-13 04:31:00,
2013-03-12 21:36:00,53.4,41.9,30.04,WSW,252,6.0,9.0,65,0.00,,,0.00,Wunderground v.1.15,2013-03-13 04:36:00,
2013-03-12 21:41:00,53.4,41.9,30.03,WSW,256,5.0,9.0,65,0.00,,,0.00,Wunderground v.1.15,2013-03-13 04:41:00,
2013-03-12 21:46:00,53.1,41.6,30.04,West,259,3.0,6.0,65,0.00,,,0.00,Wunderground v.1.15,2013-03-13 04:46:00,
2013-03-12 21:51:00,53.1,41.6,30.04,West,260,2.0,8.0,65,0.00,,,0.00,Wunderground v.1.15,2013-03-13 04:51:00,
2013-03-12 21:56:00,53.0,41.5,30.04,West,260,0.0,4.0,65,0.00,,,0.00,Wunderground v.1.15,2013-03-13 04:56:00,
2013-03-12 22:01:00,52.9,41.4,30.04,West,260,1.0,4.0,65,0.00,,,0.00,Wunderground v.1.15,2013-03-13 05:01:00,
2013-03-12 22:06:00,53.4,41.9,30.04,WSW,245,6.0,8.0,65,0.00,,,0.00,Wunderground v.1.15,2013-03-13 05:06:00,
2013-03-12 22:11:00,53.5,41.6,30.04,WSW,242,0.0,8.0,64,0.00,,,0.00,Wunderground v.1.15,2013-03-13 05:11:00,
2013-03-12 22:16:00,53.2,41.7,30.04,WSW,242,0.0,5.0,65,0.00,,,0.00,Wunderground v.1.15,2013-03-13 05:16:00,
2013-03-12 22:21:00,52.6,41.6,30.03,WSW,242,1.0,5.0,66,0.00,,,0.00,Wunderground v.1.15,2013-03-13 05:21:00,
2013-03-12 22:26:00,52.2,41.6,30.03,WSW,242,2.0,3.0,67,0.00,,,0.00,Wunderground v.1.15,2013-03-13 05:26:00,
2013-03-12 22:31:00,51.6,41.0,30.03,WSW,242,4.0,5.0,67,0.00,,,0.00,Wunderground v.1.15,2013-03-13 05:31:00,
2013-03-12 22:36:00,51.1,41.3,30.04,WSW,242,3.0,4.0,69,0.00,,,0.00,Wunderground v.1.15,2013-03-13 05:36:00,
2013-03-12 22:41:00,51.3,41.5,30.04,SSW,211,1.0,5.0,69,0.00,,,0.00,Wunderground v.1.15,2013-03-13 05:41:00,
2013-03-12 22:46:00,51.4,41.6,30.04,SSW,211,1.0,2.0,69,0.00,,,0.00,Wunderground v.1.15,2013-03-13 05:46:00,
2013-03-12 22:51:00,51.4,41.9,30.04,SSW,211,1.0,2.0,70,0.00,,,0.00,Wunderground v.1.15,2013-03-13 05:51:00,
2013-03-12 22:56:00,51.7,41.9,30.04,SSW,211,3.0,4.0,69,0.00,,,0.00,Wunderground v.1.15,2013-03-13 05:56:00,
2013-03-12 23:01:00,52.1,41.9,30.04,SW,234,4.0,7.0,68,0.00,,,0.00,Wunderground v.1.15,2013-03-13 06:01:00,
2013-03-12 23:06:00,52.5,42.2,30.05,WSW,238,6.0,8.0,68,0.00,,,0.00,Wunderground v.1.15,2013-03-13 06:06:00,
2013-03-12 23:11:00,52.8,42.1,30.04,WSW,244,3.0,8.0,67,0.00,,,0.00,Wunderground v.1.15,2013-03-13 06:11:00,
2013-03-12 23:16:00,52.8,41.7,30.04,WSW,244,1.0,6.0,66,0.00,,,0.00,Wunderground v.1.15,2013-03-13 06:16:00,
2013-03-12 23:21:00,52.7,41.7,30.04,WSW,243,4.0,6.0,66,0.00,,,0.00,Wunderground v.1.15,2013-03-13 06:21:00,
2013-03-12 23:26:00,52.7,41.7,30.04,WSW,243,0.0,4.0,66,0.00,,,0.00,Wunderground v.1.15,2013-03-13 06:26:00,
2013-03-12 23:31:00,52.7,41.7,30.04,WSW,243,4.0,4.0,66,0.00,,,0.00,Wunderground v.1.15,2013-03-13 06:31:00,
2013-03-12 23:36:00,52.7,41.7,30.04,WSW,243,1.0,2.0,66,0.00,,,0.00,Wunderground v.1.15,2013-03-13 06:36:00,
2013-03-12 23:41:00,52.4,41.8,30.04,WSW,243,2.0,4.0,67,0.00,,,0.00,Wunderground v.1.15,2013-03-13 06:41:00,
2013-03-12 23:46:00,52.0,41.8,30.04,SSW,198,6.0,7.0,68,0.00,,,0.00,Wunderground v.1.15,2013-03-13 06:46:00,
2013-03-12 23:51:00,51.4,41.9,30.04,South,183,4.0,9.0,70,0.00,,,0.00,Wunderground v.1.15,2013-03-13 06:51:00,
2013-03-12 23:54:00,51.1,41.7,30.04,South,185,4.0,6.0,70,0.00,,,0.00,Wunderground v.1.15,2013-03-13 06:54:00,
2013-03-12 23:57:00,51.0,41.9,30.04,South,186,4.0,6.0,71,0.00,,,0.00,Wunderground v.1.15,2013-03-13 06:57:00,